Back to catalog

ONEWEB-0261

AliveCommunicationsPO
NORAD 48979·PAYLOAD·🇬🇧 United Kingdom

Launched Jul 1, 2021 from Vostochny Cosmodrome

Loading…

Next Passes (next 24 hours)

TLE

FreshSource: CelesTrak SupGP

Epoch: Sep 14, 2026, 10:49 UTC

1 48979C 21060N   26257.45084907 -.00001937  00000+0 -50729-2 0  2578
2 48979  87.9135 211.0567 0002242  73.4391  17.7198 13.16594551    15

Track ONEWEB-0261 in real time with AllMySat

Download on the App Store